#timestamp,LO_Frequency,Hit,StdDev 
1650884415.0,286046998.2,N
1650884415.9,286046998.2,N
1650884435.8,286047000.8,N
1650884455.6,286046998.6,N
1650884475.5,286046999.0,N
1650884495.3,286046998.8,N
1650884515.1,286046998.6,N
1650884535.9,286047000.7,N
1650884555.7,286047000.7,N
1650884575.5,286047000.5,N
1650884595.4,286047000.1,N
1650884615.2,286047000.1,N
1650884635.1,286047002.8,N
1650884636.0,286047002.8,N
1650884655.8,286047000.6,N
1650884675.6,286047000.0,N
1650884695.5,286047002.0,N
1650884715.3,286047002.7,N
1650884735.1,286046999.7,N
1650884755.9,286047000.2,N
1650884775.7,286046998.5,N
1650884795.6,286046999.4,N
1650884815.4,286046999.5,N
1650884835.2,286046996.8,N
1650884855.1,286046998.9,N
1650884856.0,286046998.9,N
1650884875.8,286046997.1,N
1650884895.7,286046999.3,N
1650884915.5,286047000.3,N
1650884935.3,286046999.7,N
1650884955.2,286047000.2,N
1650884975.0,286046998.5,N
1650884975.9,286046998.5,N
1650884995.8,286047000.2,N
1650885015.6,286046999.9,N
1650885035.4,286047002.8,N
1650885055.3,286047001.9,N
1650885075.1,286047000.1,N
1650885095.8,286047000.6,N
1650885115.7,286047000.5,N
1650885135.5,286047000.4,N
1650885155.4,286047002.8,N
1650885175.2,286046999.8,N
1650885195.0,286047002.2,N
1650885195.9,286047002.2,N
1650885215.8,286047004.4,N
1650885235.6,286047001.5,N
1650885255.5,286047001.5,N
1650885275.3,286047003.8,N
1650885295.1,286047003.1,N
1650885315.9,286047004.3,N
1650885335.7,286047003.4,N
1650885355.5,286047003.5,N
1650885375.4,286047001.4,N
1650885395.2,286047004.0,N
1650885415.0,286047001.3,N
1650885416.0,286047001.3,N
1650885435.8,286047002.9,N
1650885455.6,286047005.5,Y
1650885475.5,286047001.4,P
1650885495.3,286047002.0,P
1650885515.1,286047002.3,P
1650885535.9,286047002.3,Y
1650885555.7,286046998.7,P
1650885575.6,286046998.6,N
1650885595.4,286047001.2,N
1650885615.2,286047001.2,N
1650885635.1,286047000.3,N
1650885636.0,286047000.3,N
1650885655.8,286047000.8,N
1650885675.6,286047000.4,N
1650885695.5,286047000.8,N
1650885715.3,286047001.2,N
1650885735.2,286047000.8,N
1650885755.9,286047001.1,N
1650885775.7,286047000.8,N
1650885795.6,286047000.0,N
1650885815.4,286046999.7,N
1650885835.2,286047000.2,N
1650885855.1,286047000.3,N
1650885856.0,286047000.3,N
1650885875.8,286047000.3,N
1650885895.7,286047000.3,N
1650885915.5,286046998.3,N
1650885935.3,286046998.4,N
1650885955.2,286046998.6,N
1650885975.0,286047000.6,N
1650885975.9,286047000.6,N
1650885995.8,286046998.6,N
1650886015.6,286046998.4,N
1650886035.4,286046998.4,N
1650886055.3,286046998.9,N
1650886075.1,286046998.1,N
1650886095.9,286047000.0,N
1650886115.7,286047000.2,N
1650886135.5,286047000.4,N
1650886155.4,286047002.8,N
1650886175.2,286047002.5,N
1650886195.0,286047002.5,N
1650886195.9,286047002.5,N
1650886215.8,286047001.9,N
1650886235.6,286047002.3,N
1650886255.5,286047004.0,N
1650886275.3,286047001.8,N
1650886295.1,286047003.5,N
1650886315.9,286047003.6,N
1650886335.7,286047002.9,N
1650886355.6,286047005.9,Y
1650886375.4,286047001.8,P
1650886395.2,286047004.2,P
1650886415.1,286047003.5,N
1650886416.0,286047003.5,N
1650886435.8,286047003.9,N
1650886455.6,286047003.9,Y
1650886475.5,286047001.0,P
1650886495.3,286046998.7,N
1650886515.2,286046998.3,N
1650886535.9,286046998.8,N
1650886555.7,286046999.3,N
1650886575.6,286046999.6,N
1650886595.4,286046999.3,N
1650886615.2,286046999.6,N
1650886635.1,286046999.3,N
1650886636.0,286046999.3,N
1650886655.8,286046997.1,N
1650886675.7,286046999.3,N
1650886695.5,286046999.3,N
1650886715.3,286046999.1,N
1650886735.2,286046999.4,N
1650886755.0,286046999.6,N
1650886755.9,286046999.6,N
1650886775.8,286046998.3,N
1650886795.6,286046999.2,N
1650886815.4,286046998.9,N
1650886835.3,286046999.4,N
1650886855.1,286046997.3,N
1650886875.8,286046999.5,N
1650886895.7,286046996.8,N
1650886915.5,286046998.9,N
1650886935.4,286046999.0,N
1650886955.2,286046998.3,N
1650886975.0,286046999.2,N
1650886975.9,286046999.2,N
1650886995.8,286046998.8,N
1650887015.6,286046999.4,N
1650887035.4,286046999.6,N
1650887055.3,286046999.5,N
1650887075.1,286046998.6,N
1650887095.9,286046998.7,N
1650887115.7,286046998.1,N
1650887135.5,286046998.4,N
1650887155.4,286046998.4,N
1650887175.2,286046998.5,N
1650887195.0,286047000.8,N
1650887196.0,286047000.8,N
1650887215.8,286047001.0,N
1650887235.6,286046998.1,N
1650887255.5,286046998.6,N
1650887275.3,286046998.1,N
1650887295.1,286046999.0,N
1650887315.9,286046999.4,N
1650887335.7,286046999.0,N
1650887355.6,286046998.9,N
1650887375.4,286046998.7,N
1650887395.2,286047000.4,N
1650887415.1,286046998.4,N
1650887416.0,286046998.4,N
1650887435.8,286047001.1,N
1650887455.6,286047000.8,N
1650887475.5,286047000.7,N
1650887495.3,286046998.3,N
1650887515.2,286046998.2,N
1650887535.9,286046996.5,Y
1650887555.7,286047001.2,P
1650887575.6,286046998.8,N
1650887595.4,286046998.4,N
1650887615.3,286046998.5,N
1650887635.1,286046998.8,N
1650887636.0,286046998.8,N
1650887655.8,286046998.1,N
1650887675.7,286047000.4,N
1650887695.5,286046998.1,N
1650887715.3,286047001.2,N
1650887735.2,286047000.3,N
1650887755.0,286046999.8,N
1650887755.9,286046999.8,N
1650887775.8,286047000.1,N
1650887795.6,286047001.0,N
1650887815.4,286047000.2,N
1650887835.3,286046999.9,N
1650887855.1,286047000.4,N
1650887875.9,286047001.1,N
1650887895.7,286047001.0,N
1650887915.5,286047001.1,N
1650887935.4,286047001.1,N
1650887955.2,286047000.0,N
1650887975.0,286047002.8,N
1650887975.9,286047002.8,N
1650887995.8,286046999.7,N
